Data supplied by UK-AIR on 20/5/2021
All Data GMT hour ending 
Status: R =Ratified P=Provisional,P*=As supplied
,,Sandy Roadside,,,,,,,,,,,,,,,,,,,,,,,
Date,time,"PM<sub>10</sub> particulate matter (Hourly measured)",status,unit,"Nitric oxide",status,unit,"Nitrogen dioxide",status,unit,"Nitrogen oxides as nitrogen dioxide",status,unit,"PM<sub>2.5</sub> particulate matter (Hourly measured)",status,unit
 
01-01-2020,01:00,22.223,R,ugm-3 (Ref.eq),1.20756,R,ugm-3,13.51951,R,ugm-3,15.37107,R,ugm-3,,,
01-01-2020,02:00,28.020,R,ugm-3 (Ref.eq),1.09778,R,ugm-3,15.88371,R,ugm-3,17.56694,R,ugm-3,,,
01-01-2020,03:00,27.054,R,ugm-3 (Ref.eq),0.74100,R,ugm-3,19.38673,R,ugm-3,20.52292,R,ugm-3,,,
01-01-2020,04:00,39.614,R,ugm-3 (Ref.eq),2.05834,R,ugm-3,26.61483,R,ugm-3,29.77090,R,ugm-3,,,
01-01-2020,05:00,39.614,R,ugm-3 (Ref.eq),5.76334,R,ugm-3,34.23579,R,ugm-3,43.07279,R,ugm-3,,,
01-01-2020,06:00,38.648,R,ugm-3 (Ref.eq),4.52834,R,ugm-3,37.90302,R,ugm-3,44.84638,R,ugm-3,,,
01-01-2020,07:00,38.648,R,ugm-3 (Ref.eq),6.83367,R,ugm-3,36.39518,R,ugm-3,46.87333,R,ugm-3,,,
01-01-2020,08:00,46.378,R,ugm-3 (Ref.eq),7.32767,R,ugm-3,33.99082,R,ugm-3,45.22643,R,ugm-3,,,
01-01-2020,09:00,43.479,R,ugm-3 (Ref.eq),9.71534,R,ugm-3,34.89043,R,ugm-3,49.78708,R,ugm-3,,,
01-01-2020,10:00,42.513,R,ugm-3 (Ref.eq),10.86801,R,ugm-3,33.37640,R,ugm-3,50.04045,R,ugm-3,,,
01-01-2020,11:00,42.513,R,ugm-3 (Ref.eq),17.29001,R,ugm-3,35.69119,R,ugm-3,62.20218,R,ugm-3,,,
01-01-2020,12:00,35.749,R,ugm-3 (Ref.eq),23.95902,R,ugm-3,35.98035,R,ugm-3,72.71700,R,ugm-3,,,
01-01-2020,13:00,44.445,R,ugm-3 (Ref.eq),24.20602,R,ugm-3,37.62858,R,ugm-3,74.74396,R,ugm-3,,,
01-01-2020,14:00,35.749,R,ugm-3 (Ref.eq),28.07569,R,ugm-3,40.81646,R,ugm-3,83.86526,R,ugm-3,,,
01-01-2020,15:00,30.918,R,ugm-3 (Ref.eq),16.46668,R,ugm-3,33.78650,R,ugm-3,59.03506,R,ugm-3,,,
01-01-2020,16:00,26.087,R,ugm-3 (Ref.eq),17.61935,R,ugm-3,40.63366,R,ugm-3,67.64962,R,ugm-3,,,
01-01-2020,17:00,31.885,R,ugm-3 (Ref.eq),23.62969,R,ugm-3,43.57967,R,ugm-3,79.81135,R,ugm-3,,,
01-01-2020,18:00,26.087,R,ugm-3 (Ref.eq),18.11335,R,ugm-3,40.76300,R,ugm-3,68.53641,R,ugm-3,,,
01-01-2020,19:00,35.749,R,ugm-3 (Ref.eq),16.13735,R,ugm-3,38.34538,R,ugm-3,63.08897,R,ugm-3,,,
01-01-2020,20:00,31.885,R,ugm-3 (Ref.eq),6.42201,R,ugm-3,32.71911,R,ugm-3,42.56605,R,ugm-3,,,
01-01-2020,21:00,29.952,R,ugm-3 (Ref.eq),4.11667,R,ugm-3,27.51267,R,ugm-3,33.82481,R,ugm-3,,,
01-01-2020,22:00,30.918,R,ugm-3 (Ref.eq),4.85767,R,ugm-3,33.59751,R,ugm-3,41.04583,R,ugm-3,,,
01-01-2020,23:00,36.716,R,ugm-3 (Ref.eq),4.03434,R,ugm-3,37.14026,R,ugm-3,43.32616,R,ugm-3,,,
01-01-2020,24:00,30.918,R,ugm-3 (Ref.eq),3.04634,R,ugm-3,30.04062,R,ugm-3,34.71160,R,ugm-3,,,
02-01-2020,01:00,24.155,R,ugm-3 (Ref.eq),3.34452,R,ugm-3,24.38370,R,ugm-3,29.51189,R,ugm-3,,,
02-01-2020,02:00,25.121,R,ugm-3 (Ref.eq),1.33781,R,ugm-3,23.17109,R,ugm-3,25.22237,R,ugm-3,,,
02-01-2020,03:00,27.054,R,ugm-3 (Ref.eq),1.00336,R,ugm-3,21.75363,R,ugm-3,23.29209,R,ugm-3,,,
02-01-2020,04:00,22.223,R,ugm-3 (Ref.eq),1.58865,R,ugm-3,14.67929,R,ugm-3,17.11518,R,ugm-3,,,
02-01-2020,05:00,13.527,R,ugm-3 (Ref.eq),2.34116,R,ugm-3,11.46648,R,ugm-3,15.05621,R,ugm-3,,,
02-01-2020,06:00,15.459,R,ugm-3 (Ref.eq),4.93316,R,ugm-3,14.31247,R,ugm-3,21.87654,R,ugm-3,,,
02-01-2020,07:00,14.493,R,ugm-3 (Ref.eq),10.11717,R,ugm-3,23.22158,R,ugm-3,38.73435,R,ugm-3,,,
02-01-2020,08:00,13.527,R,ugm-3 (Ref.eq),10.86968,R,ugm-3,23.86934,R,ugm-3,40.53595,R,ugm-3,,,
02-01-2020,09:00,11.594,R,ugm-3 (Ref.eq),13.79614,R,ugm-3,28.26147,R,ugm-3,49.41525,R,ugm-3,,,
02-01-2020,10:00,11.594,R,ugm-3 (Ref.eq),17.47511,R,ugm-3,32.78662,R,ugm-3,59.58141,R,ugm-3,,,
02-01-2020,11:00,9.662,R,ugm-3 (Ref.eq),11.62220,R,ugm-3,24.00235,R,ugm-3,41.82280,R,ugm-3,,,
02-01-2020,12:00,7.730,R,ugm-3 (Ref.eq),11.20414,R,ugm-3,23.22783,R,ugm-3,40.40726,R,ugm-3,,,
02-01-2020,13:00,11.594,R,ugm-3 (Ref.eq),14.54865,R,ugm-3,25.43472,R,ugm-3,47.74234,R,ugm-3,,,
02-01-2020,14:00,11.594,R,ugm-3 (Ref.eq),15.55201,R,ugm-3,26.08392,R,ugm-3,49.93000,R,ugm-3,,,
02-01-2020,15:00,14.493,R,ugm-3 (Ref.eq),19.56543,R,ugm-3,27.39385,R,ugm-3,57.39376,R,ugm-3,,,
02-01-2020,16:00,16.425,R,ugm-3 (Ref.eq),17.64233,R,ugm-3,28.79833,R,ugm-3,55.84953,R,ugm-3,,,
02-01-2020,17:00,9.662,R,ugm-3 (Ref.eq),19.23098,R,ugm-3,32.02461,R,ugm-3,61.51170,R,ugm-3,,,
02-01-2020,18:00,10.628,R,ugm-3 (Ref.eq),11.12052,R,ugm-3,20.13890,R,ugm-3,37.19013,R,ugm-3,,,
02-01-2020,19:00,7.730,R,ugm-3 (Ref.eq),12.20749,R,ugm-3,20.91726,R,ugm-3,39.63515,R,ugm-3,,,
02-01-2020,20:00,8.696,R,ugm-3 (Ref.eq),6.27097,R,ugm-3,16.89387,R,ugm-3,26.50922,R,ugm-3,,,
02-01-2020,21:00,5.797,R,ugm-3 (Ref.eq),5.85291,R,ugm-3,15.21855,R,ugm-3,24.19288,R,ugm-3,,,
02-01-2020,22:00,11.594,R,ugm-3 (Ref.eq),6.10375,R,ugm-3,15.86342,R,ugm-3,25.22237,R,ugm-3,,,
02-01-2020,23:00,10.628,R,ugm-3 (Ref.eq),4.76594,R,ugm-3,11.35174,R,ugm-3,18.65941,R,ugm-3,,,
02-01-2020,24:00,11.594,R,ugm-3 (Ref.eq),5.26762,R,ugm-3,13.41359,R,ugm-3,21.49049,R,ugm-3,,,
03-01-2020,01:00,7.730,R,ugm-3 (Ref.eq),3.96165,R,ugm-3,13.44140,R,ugm-3,19.51584,R,ugm-3,,,
03-01-2020,02:00,5.797,R,ugm-3 (Ref.eq),2.71656,R,ugm-3,12.21403,R,ugm-3,16.37937,R,ugm-3,,,
03-01-2020,03:00,3.865,R,ugm-3 (Ref.eq),1.27339,R,ugm-3,11.37752,R,ugm-3,13.33002,R,ugm-3,,,
03-01-2020,04:00,3.865,R,ugm-3 (Ref.eq),1.10360,R,ugm-3,14.12089,R,ugm-3,15.81306,R,ugm-3,,,
03-01-2020,05:00,4.831,R,ugm-3 (Ref.eq),7.30075,R,ugm-3,17.94874,R,ugm-3,29.14308,R,ugm-3,,,
03-01-2020,06:00,7.730,R,ugm-3 (Ref.eq),30.30662,R,ugm-3,47.75542,R,ugm-3,94.22492,R,ugm-3,,,
03-01-2020,07:00,8.696,R,ugm-3 (Ref.eq),34.80592,R,ugm-3,57.19239,R,ugm-3,110.56072,R,ugm-3,,,
03-01-2020,08:00,6.763,R,ugm-3 (Ref.eq),28.09942,R,ugm-3,49.17945,R,ugm-3,92.26462,R,ugm-3,,,
03-01-2020,09:00,9.662,R,ugm-3 (Ref.eq),19.35549,R,ugm-3,28.21609,R,ugm-3,57.89409,R,ugm-3,,,
03-01-2020,10:00,15.459,R,ugm-3 (Ref.eq),11.71516,R,ugm-3,19.28263,R,ugm-3,37.24563,R,ugm-3,,,
03-01-2020,11:00,13.527,R,ugm-3 (Ref.eq),15.87490,R,ugm-3,18.39330,R,ugm-3,42.73446,R,ugm-3,,,
03-01-2020,12:00,10.628,R,ugm-3 (Ref.eq),16.89361,R,ugm-3,23.36562,R,ugm-3,49.26879,R,ugm-3,,,
03-01-2020,13:00,20.290,R,ugm-3 (Ref.eq),22.66630,R,ugm-3,30.71940,R,ugm-3,65.47390,R,ugm-3,,,
03-01-2020,14:00,15.459,R,ugm-3 (Ref.eq),17.57275,R,ugm-3,25.98350,R,ugm-3,52.92801,R,ugm-3,,,
03-01-2020,15:00,43.479,R,ugm-3 (Ref.eq),23.93968,R,ugm-3,39.35250,R,ugm-3,76.05951,R,ugm-3,,,
03-01-2020,16:00,27.054,R,ugm-3 (Ref.eq),23.43033,R,ugm-3,40.91762,R,ugm-3,76.84362,R,ugm-3,,,
03-01-2020,17:00,32.851,R,ugm-3 (Ref.eq),38.03184,R,ugm-3,51.33125,R,ugm-3,109.64592,R,ugm-3,,,
03-01-2020,18:00,20.290,R,ugm-3 (Ref.eq),32.85339,R,ugm-3,53.91327,R,ugm-3,104.28777,R,ugm-3,,,
03-01-2020,19:00,18.358,R,ugm-3 (Ref.eq),28.77856,R,ugm-3,55.45656,R,ugm-3,99.58306,R,ugm-3,,,
03-01-2020,20:00,22.223,R,ugm-3 (Ref.eq),23.09076,R,ugm-3,46.53506,R,ugm-3,81.94039,R,ugm-3,,,
03-01-2020,21:00,20.290,R,ugm-3 (Ref.eq),22.07205,R,ugm-3,39.73313,R,ugm-3,73.57646,R,ugm-3,,,
03-01-2020,22:00,12.561,R,ugm-3 (Ref.eq),16.12957,R,ugm-3,34.20791,R,ugm-3,58.93958,R,ugm-3,,,
03-01-2020,23:00,17.392,R,ugm-3 (Ref.eq),13.07344,R,ugm-3,30.13792,R,ugm-3,50.18359,R,ugm-3,,,
03-01-2020,24:00,14.493,R,ugm-3 (Ref.eq),9.16839,R,ugm-3,25.53999,R,ugm-3,39.59799,R,ugm-3,,,
04-01-2020,01:00,15.459,R,ugm-3 (Ref.eq),5.62991,R,ugm-3,16.48973,R,ugm-3,25.12213,R,ugm-3,,,
04-01-2020,02:00,14.493,R,ugm-3 (Ref.eq),4.02136,R,ugm-3,9.93339,R,ugm-3,16.09939,R,ugm-3,,,
04-01-2020,03:00,11.594,R,ugm-3 (Ref.eq),2.32665,R,ugm-3,6.64945,R,ugm-3,10.21692,R,ugm-3,,,
04-01-2020,04:00,12.561,R,ugm-3 (Ref.eq),3.36071,R,ugm-3,8.64646,R,ugm-3,13.79948,R,ugm-3,,,
04-01-2020,05:00,7.730,R,ugm-3 (Ref.eq),3.61923,R,ugm-3,10.50576,R,ugm-3,16.05517,R,ugm-3,,,
04-01-2020,06:00,12.561,R,ugm-3 (Ref.eq),4.91181,R,ugm-3,14.09670,R,ugm-3,21.62803,R,ugm-3,,,
04-01-2020,07:00,10.628,R,ugm-3 (Ref.eq),12.75346,R,ugm-3,19.72041,R,ugm-3,39.27544,R,ugm-3,,,
04-01-2020,08:00,8.696,R,ugm-3 (Ref.eq),18.09613,R,ugm-3,27.98166,R,ugm-3,55.72867,R,ugm-3,,,
04-01-2020,09:00,9.662,R,ugm-3 (Ref.eq),24.64520,R,ugm-3,36.38343,R,ugm-3,74.17221,R,ugm-3,,,
04-01-2020,10:00,14.493,R,ugm-3 (Ref.eq),43.17219,R,ugm-3,43.66866,R,ugm-3,109.86509,R,ugm-3,,,
04-01-2020,11:00,10.628,R,ugm-3 (Ref.eq),23.18028,R,ugm-3,31.72987,R,ugm-3,67.27247,R,ugm-3,,,
04-01-2020,12:00,11.594,R,ugm-3 (Ref.eq),21.88770,R,ugm-3,31.19074,R,ugm-3,64.75141,R,ugm-3,,,
04-01-2020,13:00,7.730,R,ugm-3 (Ref.eq),24.73138,R,ugm-3,35.72055,R,ugm-3,73.64146,R,ugm-3,,,
04-01-2020,14:00,8.696,R,ugm-3 (Ref.eq),21.37066,R,ugm-3,37.02563,R,ugm-3,69.79353,R,ugm-3,,,
04-01-2020,15:00,8.696,R,ugm-3 (Ref.eq),22.74942,R,ugm-3,32.25783,R,ugm-3,67.13978,R,ugm-3,,,
04-01-2020,16:00,14.493,R,ugm-3 (Ref.eq),27.74740,R,ugm-3,43.96672,R,ugm-3,86.51213,R,ugm-3,,,
04-01-2020,17:00,10.628,R,ugm-3 (Ref.eq),35.50288,R,ugm-3,55.03005,R,ugm-3,109.46703,R,ugm-3,,,
04-01-2020,18:00,7.730,R,ugm-3 (Ref.eq),28.43677,R,ugm-3,51.53436,R,ugm-3,95.13680,R,ugm-3,,,
04-01-2020,19:00,5.797,R,ugm-3 (Ref.eq),27.83357,R,ugm-3,46.22296,R,ugm-3,88.90050,R,ugm-3,,,
04-01-2020,20:00,6.763,R,ugm-3 (Ref.eq),22.57707,R,ugm-3,40.35064,R,ugm-3,74.96833,R,ugm-3,,,
04-01-2020,21:00,9.662,R,ugm-3 (Ref.eq),20.50895,R,ugm-3,41.26604,R,ugm-3,72.71265,R,ugm-3,,,
04-01-2020,22:00,12.561,R,ugm-3 (Ref.eq),21.45684,R,ugm-3,42.99712,R,ugm-3,75.89714,R,ugm-3,,,
04-01-2020,23:00,9.662,R,ugm-3 (Ref.eq),12.49495,R,ugm-3,31.39522,R,ugm-3,50.55387,R,ugm-3,,,
04-01-2020,24:00,6.763,R,ugm-3 (Ref.eq),10.42682,R,ugm-3,23.68595,R,ugm-3,39.67351,R,ugm-3,,,
05-01-2020,01:00,6.763,R,ugm-3 (Ref.eq),8.74516,R,ugm-3,19.09570,R,ugm-3,32.50475,R,ugm-3,,,
05-01-2020,02:00,7.730,R,ugm-3 (Ref.eq),5.48030,R,ugm-3,15.48170,R,ugm-3,23.88471,R,ugm-3,,,
05-01-2020,03:00,10.628,R,ugm-3 (Ref.eq),3.23571,R,ugm-3,12.95218,R,ugm-3,17.91353,R,ugm-3,,,
05-01-2020,04:00,12.561,R,ugm-3 (Ref.eq),1.48668,R,ugm-3,8.89958,R,ugm-3,11.17912,R,ugm-3,,,
05-01-2020,05:00,10.628,R,ugm-3 (Ref.eq),2.79845,R,ugm-3,6.75354,R,ugm-3,11.04443,R,ugm-3,,,
05-01-2020,06:00,6.763,R,ugm-3 (Ref.eq),4.11022,R,ugm-3,8.37876,R,ugm-3,14.68101,R,ugm-3,,,
05-01-2020,07:00,8.696,R,ugm-3 (Ref.eq),3.41061,R,ugm-3,6.89241,R,ugm-3,12.12194,R,ugm-3,,,
05-01-2020,08:00,9.662,R,ugm-3 (Ref.eq),8.13300,R,ugm-3,10.96532,R,ugm-3,23.43575,R,ugm-3,,,
05-01-2020,09:00,7.730,R,ugm-3 (Ref.eq),10.31929,R,ugm-3,16.77186,R,ugm-3,32.59454,R,ugm-3,,,
05-01-2020,10:00,5.797,R,ugm-3 (Ref.eq),15.30403,R,ugm-3,25.29128,R,ugm-3,48.75713,R,ugm-3,,,
05-01-2020,11:00,10.628,R,ugm-3 (Ref.eq),22.21270,R,ugm-3,30.99540,R,ugm-3,65.05440,R,ugm-3,,,
05-01-2020,12:00,5.797,R,ugm-3 (Ref.eq),19.85151,R,ugm-3,32.19145,R,ugm-3,62.63001,R,ugm-3,,,
05-01-2020,13:00,5.797,R,ugm-3 (Ref.eq),22.38760,R,ugm-3,32.20879,R,ugm-3,66.53597,R,ugm-3,,,
05-01-2020,14:00,5.797,R,ugm-3 (Ref.eq),19.58916,R,ugm-3,30.84278,R,ugm-3,60.87906,R,ugm-3,,,
05-01-2020,15:00,8.696,R,ugm-3 (Ref.eq),18.71464,R,ugm-3,26.93085,R,ugm-3,55.62622,R,ugm-3,,,
05-01-2020,16:00,5.797,R,ugm-3 (Ref.eq),16.44090,R,ugm-3,29.74376,R,ugm-3,54.95278,R,ugm-3,,,
05-01-2020,17:00,10.628,R,ugm-3 (Ref.eq),23.26212,R,ugm-3,38.41042,R,ugm-3,74.07851,R,ugm-3,,,
05-01-2020,18:00,8.696,R,ugm-3 (Ref.eq),23.61193,R,ugm-3,37.73937,R,ugm-3,73.94382,R,ugm-3,,,
05-01-2020,19:00,9.662,R,ugm-3 (Ref.eq),14.86677,R,ugm-3,33.36958,R,ugm-3,56.16498,R,ugm-3,,,
05-01-2020,20:00,9.662,R,ugm-3 (Ref.eq),15.12912,R,ugm-3,30.94699,R,ugm-3,54.14465,R,ugm-3,,,
05-01-2020,21:00,6.763,R,ugm-3 (Ref.eq),9.88203,R,ugm-3,27.27455,R,ugm-3,42.42678,R,ugm-3,,,
05-01-2020,22:00,12.561,R,ugm-3 (Ref.eq),6.03416,R,ugm-3,17.68539,R,ugm-3,26.93764,R,ugm-3,,,
05-01-2020,23:00,8.696,R,ugm-3 (Ref.eq),4.54748,R,ugm-3,19.29149,R,ugm-3,26.26420,R,ugm-3,,,
05-01-2020,24:00,11.594,R,ugm-3 (Ref.eq),2.71100,R,ugm-3,12.00578,R,ugm-3,16.16258,R,ugm-3,,,
06-01-2020,01:00,10.628,R,ugm-3 (Ref.eq),3.66755,R,ugm-3,8.22766,R,ugm-3,13.85116,R,ugm-3,,,
06-01-2020,02:00,9.662,R,ugm-3 (Ref.eq),4.96894,R,ugm-3,6.96123,R,ugm-3,14.58017,R,ugm-3,,,
06-01-2020,03:00,6.763,R,ugm-3 (Ref.eq),1.41970,R,ugm-3,5.20437,R,ugm-3,7.38121,R,ugm-3,,,
06-01-2020,04:00,5.797,R,ugm-3 (Ref.eq),2.39574,R,ugm-3,3.98117,R,ugm-3,7.65459,R,ugm-3,,,
06-01-2020,05:00,7.730,R,ugm-3 (Ref.eq),5.50133,R,ugm-3,9.33433,R,ugm-3,17.76958,R,ugm-3,,,
06-01-2020,06:00,19.324,R,ugm-3 (Ref.eq),16.77018,R,ugm-3,25.81786,R,ugm-3,51.53178,R,ugm-3,,,
06-01-2020,07:00,18.358,R,ugm-3 (Ref.eq),24.22360,R,ugm-3,32.43241,R,ugm-3,69.57474,R,ugm-3,,,
06-01-2020,08:00,19.324,R,ugm-3 (Ref.eq),23.24756,R,ugm-3,36.79946,R,ugm-3,72.44521,R,ugm-3,,,
06-01-2020,09:00,18.358,R,ugm-3 (Ref.eq),14.19698,R,ugm-3,32.08710,R,ugm-3,53.85550,R,ugm-3,,,
06-01-2020,10:00,14.493,R,ugm-3 (Ref.eq),14.90683,R,ugm-3,26.35125,R,ugm-3,49.20807,R,ugm-3,,,
06-01-2020,11:00,10.628,R,ugm-3 (Ref.eq),11.53505,R,ugm-3,21.95301,R,ugm-3,39.63983,R,ugm-3,,,
06-01-2020,12:00,13.527,R,ugm-3 (Ref.eq),15.26175,R,ugm-3,25.53366,R,ugm-3,48.93469,R,ugm-3,,,
06-01-2020,13:00,13.527,R,ugm-3 (Ref.eq),15.08429,R,ugm-3,22.93529,R,ugm-3,46.06422,R,ugm-3,,,
06-01-2020,14:00,13.527,R,ugm-3 (Ref.eq),13.48713,R,ugm-3,26.75113,R,ugm-3,47.43111,R,ugm-3,,,
06-01-2020,15:00,19.324,R,ugm-3 (Ref.eq),14.46317,R,ugm-3,30.58543,R,ugm-3,52.76198,R,ugm-3,,,
06-01-2020,16:00,15.459,R,ugm-3 (Ref.eq),25.90949,R,ugm-3,43.92638,R,ugm-3,83.65371,R,ugm-3,,,
06-01-2020,17:00,10.628,R,ugm-3 (Ref.eq),25.82076,R,ugm-3,43.10561,R,ugm-3,82.69689,R,ugm-3,,,
06-01-2020,18:00,10.628,R,ugm-3 (Ref.eq),20.94055,R,ugm-3,29.94845,R,ugm-3,62.05684,R,ugm-3,,,
06-01-2020,19:00,8.696,R,ugm-3 (Ref.eq),25.37710,R,ugm-3,35.58453,R,ugm-3,74.49555,R,ugm-3,,,
06-01-2020,20:00,8.696,R,ugm-3 (Ref.eq),36.64596,R,ugm-3,37.30564,R,ugm-3,93.49533,R,ugm-3,,,
06-01-2020,21:00,9.662,R,ugm-3 (Ref.eq),16.94765,R,ugm-3,31.56007,R,ugm-3,57.54610,R,ugm-3,,,
06-01-2020,22:00,16.425,R,ugm-3 (Ref.eq),12.15617,R,ugm-3,28.38185,R,ugm-3,47.02104,R,ugm-3,,,
06-01-2020,23:00,20.290,R,ugm-3 (Ref.eq),9.13931,R,ugm-3,20.43224,R,ugm-3,34.44565,R,ugm-3,,,
06-01-2020,24:00,21.256,R,ugm-3 (Ref.eq),7.00976,R,ugm-3,17.27311,R,ugm-3,28.02126,R,ugm-3,,,
07-01-2020,01:00,26.087,R,ugm-3 (Ref.eq),5.40064,R,ugm-3,14.83413,R,ugm-3,23.11499,R,ugm-3,,,
07-01-2020,02:00,19.324,R,ugm-3 (Ref.eq),3.72044,R,ugm-3,13.89692,R,ugm-3,19.60151,R,ugm-3,,,
07-01-2020,03:00,20.290,R,ugm-3 (Ref.eq),3.24038,R,ugm-3,11.81296,R,ugm-3,16.78148,R,ugm-3,,,
07-01-2020,04:00,23.189,R,ugm-3 (Ref.eq),2.25027,R,ugm-3,12.63767,R,ugm-3,16.08803,R,ugm-3,,,
07-01-2020,05:00,26.087,R,ugm-3 (Ref.eq),4.50053,R,ugm-3,16.95395,R,ugm-3,23.85467,R,ugm-3,,,
07-01-2020,06:00,24.155,R,ugm-3 (Ref.eq),24.66292,R,ugm-3,32.77723,R,ugm-3,70.59318,R,ugm-3,,,
07-01-2020,07:00,22.223,R,ugm-3 (Ref.eq),27.63328,R,ugm-3,43.89472,R,ugm-3,86.26515,R,ugm-3,,,
07-01-2020,08:00,19.324,R,ugm-3 (Ref.eq),32.31383,R,ugm-3,48.92268,R,ugm-3,98.46987,R,ugm-3,,,
07-01-2020,09:00,21.256,R,ugm-3 (Ref.eq),40.41479,R,ugm-3,53.00549,R,ugm-3,114.97397,R,ugm-3,,,
07-01-2020,10:00,20.290,R,ugm-3 (Ref.eq),43.29513,R,ugm-3,49.14379,R,ugm-3,115.52873,R,ugm-3,,,
07-01-2020,11:00,29.952,R,ugm-3 (Ref.eq),17.10203,R,ugm-3,29.53062,R,ugm-3,55.75336,R,ugm-3,,,
07-01-2020,12:00,31.885,R,ugm-3 (Ref.eq),17.28205,R,ugm-3,33.83136,R,ugm-3,60.33013,R,ugm-3,,,
07-01-2020,13:00,28.986,R,ugm-3 (Ref.eq),15.12179,R,ugm-3,33.39908,R,ugm-3,56.58550,R,ugm-3,,,
07-01-2020,14:00,25.121,R,ugm-3 (Ref.eq),18.63221,R,ugm-3,28.98734,R,ugm-3,57.55633,R,ugm-3,,,
07-01-2020,15:00,22.223,R,ugm-3 (Ref.eq),12.78152,R,ugm-3,28.94343,R,ugm-3,48.54148,R,ugm-3,,,
07-01-2020,16:00,19.324,R,ugm-3 (Ref.eq),14.22169,R,ugm-3,29.50900,R,ugm-3,51.31528,R,ugm-3,,,
07-01-2020,17:00,9.662,R,ugm-3 (Ref.eq),12.24145,R,ugm-3,30.46497,R,ugm-3,49.23493,R,ugm-3,,,
07-01-2020,18:00,7.730,R,ugm-3 (Ref.eq),13.23157,R,ugm-3,24.78611,R,ugm-3,45.07423,R,ugm-3,,,
07-01-2020,19:00,8.696,R,ugm-3 (Ref.eq),9.18109,R,ugm-3,20.31764,R,ugm-3,34.39511,R,ugm-3,,,
07-01-2020,20:00,5.797,R,ugm-3 (Ref.eq),8.64103,R,ugm-3,19.48144,R,ugm-3,32.73083,R,ugm-3,,,
07-01-2020,21:00,5.797,R,ugm-3 (Ref.eq),4.50053,R,ugm-3,9.18731,R,ugm-3,16.08803,R,ugm-3,,,
07-01-2020,22:00,7.730,R,ugm-3 (Ref.eq),4.50053,R,ugm-3,7.10696,R,ugm-3,14.00769,R,ugm-3,,,
07-01-2020,23:00,5.797,R,ugm-3 (Ref.eq),2.97035,R,ugm-3,6.67941,R,ugm-3,11.23389,R,ugm-3,,,
07-01-2020,24:00,2.899,R,ugm-3 (Ref.eq),2.97035,R,ugm-3,4.73775,R,ugm-3,9.29223,R,ugm-3,,,
08-01-2020,01:00,1.932,R,ugm-3 (Ref.eq),1.70408,R,ugm-3,3.76509,R,ugm-3,6.37799,R,ugm-3,,,
08-01-2020,02:00,5.797,R,ugm-3 (Ref.eq),1.94752,R,ugm-3,2.82906,R,ugm-3,5.81522,R,ugm-3,,,
08-01-2020,03:00,4.831,R,ugm-3 (Ref.eq),2.28226,R,ugm-3,3.53513,R,ugm-3,7.03454,R,ugm-3,,,
08-01-2020,04:00,4.831,R,ugm-3 (Ref.eq),2.46484,R,ugm-3,4.52140,R,ugm-3,8.30076,R,ugm-3,,,
08-01-2020,05:00,13.527,R,ugm-3 (Ref.eq),61.71219,R,ugm-3,56.61861,R,ugm-3,151.24264,R,ugm-3,,,
08-01-2020,06:00,20.290,R,ugm-3 (Ref.eq),87.09087,R,ugm-3,55.41032,R,ugm-3,188.94779,R,ugm-3,,,
08-01-2020,07:00,30.918,R,ugm-3 (Ref.eq),33.86867,R,ugm-3,39.51780,R,ugm-3,91.44904,R,ugm-3,,,
08-01-2020,08:00,34.783,R,ugm-3 (Ref.eq),19.71869,R,ugm-3,31.66907,R,ugm-3,61.90397,R,ugm-3,,,
08-01-2020,09:00,33.817,R,ugm-3 (Ref.eq),22.00094,R,ugm-3,32.53107,R,ugm-3,66.26538,R,ugm-3,,,
08-01-2020,10:00,37.682,R,ugm-3 (Ref.eq),40.98931,R,ugm-3,37.32248,R,ugm-3,100.17187,R,ugm-3,,,
08-01-2020,11:00,,,,30.58222,R,ugm-3,36.25619,R,ugm-3,83.14828,R,ugm-3,,,
08-01-2020,12:00,,,,29.94319,R,ugm-3,37.75190,R,ugm-3,83.66415,R,ugm-3,25.000,R,ugm-3 (BAM)
08-01-2020,13:00,46.378,R,ugm-3 (Ref.eq),23.91804,R,ugm-3,35.50059,R,ugm-3,72.17440,R,ugm-3,15.000,R,ugm-3 (BAM)
08-01-2020,14:00,36.716,R,ugm-3 (Ref.eq),26.47416,R,ugm-3,30.17434,R,ugm-3,70.76749,R,ugm-3,15.000,R,ugm-3 (BAM)
08-01-2020,15:00,37.682,R,ugm-3 (Ref.eq),31.76899,R,ugm-3,40.34552,R,ugm-3,89.05730,R,ugm-3,11.000,R,ugm-3 (BAM)
08-01-2020,16:00,38.648,R,ugm-3 (Ref.eq),52.03542,R,ugm-3,64.70295,R,ugm-3,144.48948,R,ugm-3,14.000,R,ugm-3 (BAM)
08-01-2020,17:00,38.648,R,ugm-3 (Ref.eq),73.76249,R,ugm-3,86.11730,R,ugm-3,199.21822,R,ugm-3,16.000,R,ugm-3 (BAM)
08-01-2020,18:00,30.918,R,ugm-3 (Ref.eq),51.94413,R,ugm-3,74.69128,R,ugm-3,154.33784,R,ugm-3,17.000,R,ugm-3 (BAM)
08-01-2020,19:00,36.716,R,ugm-3 (Ref.eq),35.05544,R,ugm-3,71.32322,R,ugm-3,125.07415,R,ugm-3,17.000,R,ugm-3 (BAM)
08-01-2020,20:00,35.749,R,ugm-3 (Ref.eq),44.73221,R,ugm-3,74.63484,R,ugm-3,143.22327,R,ugm-3,15.000,R,ugm-3 (BAM)
08-01-2020,21:00,26.087,R,ugm-3 (Ref.eq),8.67257,R,ugm-3,56.62559,R,ugm-3,69.92334,R,ugm-3,15.000,R,ugm-3 (BAM)
08-01-2020,22:00,26.087,R,ugm-3 (Ref.eq),2.73871,R,ugm-3,26.18993,R,ugm-3,30.38922,R,ugm-3,13.000,R,ugm-3 (BAM)
08-01-2020,23:00,17.392,R,ugm-3 (Ref.eq),1.09548,R,ugm-3,10.56039,R,ugm-3,12.24010,R,ugm-3,9.000,R,ugm-3 (BAM)
08-01-2020,24:00,25.121,R,ugm-3 (Ref.eq),2.09968,R,ugm-3,34.06361,R,ugm-3,37.28307,R,ugm-3,15.000,R,ugm-3 (BAM)
09-01-2020,01:00,16.425,R,ugm-3 (Ref.eq),1.08965,R,ugm-3,25.54591,R,ugm-3,27.21668,R,ugm-3,6.000,R,ugm-3 (BAM)
09-01-2020,02:00,4.831,R,ugm-3 (Ref.eq),2.30037,R,ugm-3,22.19817,R,ugm-3,25.72535,R,ugm-3,5.000,R,ugm-3 (BAM)
09-01-2020,03:00,7.730,R,ugm-3 (Ref.eq),3.26895,R,ugm-3,10.36698,R,ugm-3,15.37929,R,ugm-3,2.000,R,ugm-3 (BAM)
09-01-2020,04:00,10.628,R,ugm-3 (Ref.eq),4.17698,R,ugm-3,8.69504,R,ugm-3,15.09966,R,ugm-3,0.000,R,ugm-3 (BAM)
09-01-2020,05:00,13.527,R,ugm-3 (Ref.eq),4.90342,R,ugm-3,12.19498,R,ugm-3,19.71345,R,ugm-3,4.000,R,ugm-3 (BAM)
09-01-2020,06:00,7.730,R,ugm-3 (Ref.eq),12.71256,R,ugm-3,24.82799,R,ugm-3,44.32031,R,ugm-3,4.000,R,ugm-3 (BAM)
09-01-2020,07:00,9.662,R,ugm-3 (Ref.eq),39.86296,R,ugm-3,50.44738,R,ugm-3,111.56974,R,ugm-3,3.000,R,ugm-3 (BAM)
09-01-2020,08:00,10.628,R,ugm-3 (Ref.eq),31.69060,R,ugm-3,41.30734,R,ugm-3,89.89892,R,ugm-3,4.000,R,ugm-3 (BAM)
09-01-2020,09:00,6.763,R,ugm-3 (Ref.eq),34.41472,R,ugm-3,44.82006,R,ugm-3,97.58857,R,ugm-3,2.000,R,ugm-3 (BAM)
09-01-2020,10:00,20.290,R,ugm-3 (Ref.eq),44.40316,R,ugm-3,40.40998,R,ugm-3,108.49388,R,ugm-3,11.000,R,ugm-3 (BAM)
09-01-2020,11:00,18.358,R,ugm-3 (Ref.eq),40.68020,R,ugm-3,51.85072,R,ugm-3,114.22616,R,ugm-3,8.000,R,ugm-3 (BAM)
09-01-2020,12:00,22.223,R,ugm-3 (Ref.eq),36.41241,R,ugm-3,52.38267,R,ugm-3,108.21426,R,ugm-3,5.000,R,ugm-3 (BAM)
09-01-2020,13:00,19.324,R,ugm-3 (Ref.eq),45.58362,R,ugm-3,58.03380,R,ugm-3,127.92770,R,ugm-3,8.000,R,ugm-3 (BAM)
09-01-2020,14:00,17.392,R,ugm-3 (Ref.eq),49.03417,R,ugm-3,65.04646,R,ugm-3,140.23113,R,ugm-3,6.000,R,ugm-3 (BAM)
09-01-2020,15:00,24.155,R,ugm-3 (Ref.eq),71.82598,R,ugm-3,98.46742,R,ugm-3,208.59905,R,ugm-3,9.000,R,ugm-3 (BAM)
09-01-2020,16:00,29.952,R,ugm-3 (Ref.eq),122.85784,R,ugm-3,168.97932,R,ugm-3,357.35870,R,ugm-3,9.000,R,ugm-3 (BAM)
09-01-2020,17:00,21.256,R,ugm-3 (Ref.eq),80.08914,R,ugm-3,155.28383,R,ugm-3,278.08547,R,ugm-3,6.000,R,ugm-3 (BAM)
09-01-2020,18:00,13.527,R,ugm-3 (Ref.eq),13.07578,R,ugm-3,64.95627,R,ugm-3,85.00551,R,ugm-3,10.000,R,ugm-3 (BAM)
09-01-2020,19:00,14.493,R,ugm-3 (Ref.eq),25.15271,R,ugm-3,77.47676,R,ugm-3,116.04371,R,ugm-3,10.000,R,ugm-3 (BAM)
09-01-2020,20:00,8.696,R,ugm-3 (Ref.eq),112.14296,R,ugm-3,119.97669,R,ugm-3,291.92683,R,ugm-3,9.000,R,ugm-3 (BAM)
09-01-2020,21:00,12.561,R,ugm-3 (Ref.eq),6.62869,R,ugm-3,44.64233,R,ugm-3,54.80619,R,ugm-3,8.000,R,ugm-3 (BAM)
09-01-2020,22:00,8.696,R,ugm-3 (Ref.eq),5.44824,R,ugm-3,36.66552,R,ugm-3,45.01937,R,ugm-3,5.000,R,ugm-3 (BAM)
09-01-2020,23:00,15.459,R,ugm-3 (Ref.eq),7.62754,R,ugm-3,39.19606,R,ugm-3,50.89146,R,ugm-3,12.000,R,ugm-3 (BAM)
09-01-2020,24:00,6.763,R,ugm-3 (Ref.eq),9.26201,R,ugm-3,29.97895,R,ugm-3,44.18050,R,ugm-3,,,
10-01-2020,01:00,18.358,R,ugm-3 (Ref.eq),5.17822,R,ugm-3,20.03193,R,ugm-3,27.97176,R,ugm-3,,,
10-01-2020,02:00,9.662,R,ugm-3 (Ref.eq),2.76975,R,ugm-3,9.09064,R,ugm-3,13.33753,R,ugm-3,,,
10-01-2020,03:00,10.628,R,ugm-3 (Ref.eq),2.43858,R,ugm-3,7.09764,R,ugm-3,10.83674,R,ugm-3,9.000,R,ugm-3 (BAM)
10-01-2020,04:00,8.696,R,ugm-3 (Ref.eq),2.52890,R,ugm-3,7.23702,R,ugm-3,11.11461,R,ugm-3,7.000,R,ugm-3 (BAM)
10-01-2020,05:00,8.696,R,ugm-3 (Ref.eq),6.77384,R,ugm-3,11.00921,R,ugm-3,21.39562,R,ugm-3,5.000,R,ugm-3 (BAM)
10-01-2020,06:00,6.763,R,ugm-3 (Ref.eq),14.81212,R,ugm-3,23.13614,R,ugm-3,45.84775,R,ugm-3,3.000,R,ugm-3 (BAM)
10-01-2020,07:00,7.730,R,ugm-3 (Ref.eq),23.75359,R,ugm-3,33.32249,R,ugm-3,69.74415,R,ugm-3,3.000,R,ugm-3 (BAM)
10-01-2020,08:00,4.831,R,ugm-3 (Ref.eq),47.59749,R,ugm-3,52.05751,R,ugm-3,125.03931,R,ugm-3,5.000,R,ugm-3 (BAM)
10-01-2020,09:00,7.730,R,ugm-3 (Ref.eq),29.26297,R,ugm-3,38.76814,R,ugm-3,83.63741,R,ugm-3,5.000,R,ugm-3 (BAM)
10-01-2020,10:00,6.763,R,ugm-3 (Ref.eq),29.35329,R,ugm-3,38.21286,R,ugm-3,83.22061,R,ugm-3,4.000,R,ugm-3 (BAM)
10-01-2020,11:00,13.527,R,ugm-3 (Ref.eq),28.35980,R,ugm-3,36.54075,R,ugm-3,80.02516,R,ugm-3,4.000,R,ugm-3 (BAM)
10-01-2020,12:00,12.561,R,ugm-3 (Ref.eq),25.37931,R,ugm-3,33.05267,R,ugm-3,71.96707,R,ugm-3,5.000,R,ugm-3 (BAM)
10-01-2020,13:00,13.527,R,ugm-3 (Ref.eq),36.93999,R,ugm-3,39.50081,R,ugm-3,96.14134,R,ugm-3,6.000,R,ugm-3 (BAM)
10-01-2020,14:00,16.425,R,ugm-3 (Ref.eq),33.50791,R,ugm-3,40.87315,R,ugm-3,92.25122,R,ugm-3,8.000,R,ugm-3 (BAM)
10-01-2020,15:00,16.425,R,ugm-3 (Ref.eq),38.47539,R,ugm-3,49.65049,R,ugm-3,108.64527,R,ugm-3,5.000,R,ugm-3 (BAM)
10-01-2020,16:00,17.392,R,ugm-3 (Ref.eq),53.91974,R,ugm-3,68.20499,R,ugm-3,150.88077,R,ugm-3,5.000,R,ugm-3 (BAM)
10-01-2020,17:00,24.155,R,ugm-3 (Ref.eq),46.69431,R,ugm-3,76.36624,R,ugm-3,147.96319,R,ugm-3,12.000,R,ugm-3 (BAM)
10-01-2020,18:00,28.020,R,ugm-3 (Ref.eq),56.26800,R,ugm-3,70.16167,R,ugm-3,156.43807,R,ugm-3,15.000,R,ugm-3 (BAM)
10-01-2020,19:00,15.459,R,ugm-3 (Ref.eq),33.77887,R,ugm-3,65.32662,R,ugm-3,117.12015,R,ugm-3,5.000,R,ugm-3 (BAM)
10-01-2020,20:00,18.358,R,ugm-3 (Ref.eq),17.34102,R,ugm-3,53.99169,R,ugm-3,80.58089,R,ugm-3,15.000,R,ugm-3 (BAM)
10-01-2020,21:00,14.493,R,ugm-3 (Ref.eq),6.59320,R,ugm-3,33.37646,R,ugm-3,43.48589,R,ugm-3,9.000,R,ugm-3 (BAM)
10-01-2020,22:00,16.425,R,ugm-3 (Ref.eq),6.23193,R,ugm-3,31.15175,R,ugm-3,40.70724,R,ugm-3,5.000,R,ugm-3 (BAM)
10-01-2020,23:00,12.561,R,ugm-3 (Ref.eq),3.61271,R,ugm-3,23.91429,R,ugm-3,29.45371,R,ugm-3,8.000,R,ugm-3 (BAM)